FW1241 Weather Reports


Display with metric or nautical units.
time (UTC)temp
F
wind
direction
speed
MPH
gust
MPH
rain 1hr
in
rain 24hr
in
rain mn
in
humidity
%
barometer
mb
20211208160603 39 315 0.0 0.0 0.00 0.00 0.00 96 1019.4
20211208160102 38 314 0.0 0.0 0.00 0.00 0.00 96 1019.4
20211208155603 38 315 0.0 1.0 0.00 0.00 0.00 96 1019.4
20211208154602 37 312 0.0 0.0 0.00 0.00 0.00 96 1019.3
20211208153102 36 313 0.0 0.0 0.00 0.00 0.00 95 1019.1
20211208152603 36 313 0.0 0.0 0.00 0.00 0.00 95 1019.0
20211208152103 36 313 0.0 0.0 0.00 0.00 0.00 95 1019.0
20211208151103 36 146 0.0 0.0 0.00 0.00 0.00 95 1019.0
20211208150603 36 146 0.0 0.0 0.00 0.00 0.00 95 1018.8
20211208145602 36 146 0.0 0.0 0.00 0.00 0.00 95 1018.8
20211208145102 36 146 0.0 0.0 0.00 0.00 0.00 95 1018.9
20211208144103 36 130 0.0 1.0 0.00 0.00 0.00 95 1019.0
20211208143103 37 225 0.0 1.0 0.00 0.00 0.00 95 1019.0
20211208142603 37 225 0.0 1.0 0.00 0.00 0.00 95 1019.0
20211208142102 37 225 0.0 0.0 0.00 0.00 0.00 95 1018.8
20211208141102 37 283 0.0 0.0 0.00 0.00 0.00 95 1018.8
20211208140602 37 311 0.0 0.0 0.00 0.00 0.00 95 1019.0
20211208140103 37 311 0.0 0.0 0.00 0.00 0.00 95 1019.0
20211208135603 37 311 0.0 0.0 0.00 0.00 0.00 95 1018.9
20211208134103 38 302 0.0 1.0 0.00 0.00 0.00 95 1018.6
20211208133603 39 302 0.0 1.0 0.00 0.00 0.00 95 1018.6
20211208133102 39 316 0.0 1.0 0.00 0.00 0.00 95 1018.3
20211208132102 39 120 0.0 1.0 0.00 0.00 0.00 95 1018.0
20211208130602 38 120 0.0 0.0 0.00 0.00 0.00 95 1017.8
20211208125103 39 120 0.0 0.0 0.00 0.00 0.00 95 1017.7
20211208124103 39 120 0.0 0.0 0.00 0.00 0.00 95 1017.9
20211208123602 39 120 0.0 0.0 0.00 0.00 0.00 95 1017.7
20211208123103 39 120 0.0 0.0 0.00 0.00 0.00 95 1017.9
20211208122603 39 120 0.0 0.0 0.00 0.00 0.00 95 1018.1
20211208122103 39 120 0.0 0.0 0.00 0.00 0.00 95 1018.1
20211208121603 39 120 0.0 0.0 0.00 0.00 0.00 95 1018.2
20211208121103 39 120 0.0 0.0 0.00 0.00 0.00 95 1018.3
20211208120603 39 120 0.0 0.0 0.00 0.00 0.00 95 1018.3
20211208115603 38 120 0.0 1.0 0.00 0.00 0.00 95 1018.5
20211208115102 38 110 0.0 0.0 0.00 0.00 0.00 95 1018.6
20211208114603 38 110 0.0 0.0 0.00 0.00 0.00 95 1018.6
20211208114103 38 110 0.0 0.0 0.00 0.00 0.00 95 1018.7
20211208113603 39 110 0.0 0.0 0.00 0.00 0.00 95 1018.7
20211208113102 39 110 0.0 0.0 0.00 0.00 0.00 95 1018.7
20211208112602 39 110 0.0 0.0 0.00 0.00 0.00 95 1018.8
20211208112102 39 110 0.0 1.0 0.00 0.00 0.00 95 1018.9
20211208111102 39 110 0.0 0.0 0.00 0.00 0.00 95 1018.6
20211208110602 39 110 0.0 0.0 0.00 0.00 0.00 95 1018.6
20211208110103 39 110 0.0 0.0 0.00 0.00 0.00 95 1018.7
20211208105102 39 110 0.0 0.0 0.00 0.00 0.00 95 1019.1
20211208104602 39 110 0.0 0.0 0.00 0.00 0.00 95 1019.1
20211208104102 40 110 0.0 0.0 0.00 0.00 0.00 95 1019.0
20211208103602 40 110 0.0 1.0 0.00 0.00 0.00 95 1018.9
20211208102603 39 74 0.0 0.0 0.00 0.00 0.00 95 1018.9
20211208102103 39 73 0.0 1.0 0.00 0.00 0.00 95 1019.0
20211208101603 39 286 0.0 0.0 0.00 0.00 0.00 95 1019.3
20211208101103 39 287 0.0 0.0 0.00 0.00 0.00 95 1019.4
20211208100602 39 287 0.0 1.0 0.00 0.00 0.00 95 1019.3
20211208100103 39 354 0.0 1.0 0.00 0.00 0.00 95 1019.2
20211208095603 40 102 0.0 1.0 0.00 0.00 0.00 95 1018.9
20211208095103 39 101 0.0 1.0 0.00 0.00 0.00 95 1018.7
20211208094603 39 101 0.0 1.0 0.00 0.00 0.00 95 1018.6
20211208094103 39 132 0.0 1.0 0.00 0.00 0.00 95 1018.6
20211208093603 39 136 0.0 1.0 0.00 0.00 0.00 95 1018.7
20211208092603 39 125 0.0 1.0 0.00 0.00 0.00 95 1018.7
20211208092103 39 140 0.0 1.0 0.00 0.00 0.00 95 1018.5
20211208091603 39 129 0.0 0.0 0.00 0.00 0.00 94 1018.7
20211208091102 39 104 0.0 0.0 0.00 0.00 0.00 95 1018.8
20211208090603 39 104 0.0 0.0 0.00 0.00 0.00 95 1018.9
20211208090102 39 96 0.0 1.0 0.00 0.00 0.00 95 1018.8
20211208085603 39 128 0.0 1.0 0.00 0.00 0.00 95 1018.9
20211208085102 39 128 0.0 0.0 0.00 0.00 0.00 95 1019.0
20211208084603 39 128 0.0 0.0 0.00 0.00 0.00 95 1018.9
20211208084102 39 128 0.0 0.0 0.00 0.00 0.00 95 1018.8
20211208083102 39 128 0.0 0.0 0.00 0.00 0.00 94 1018.7
20211208082102 39 132 0.0 0.0 0.00 0.00 0.00 94 1018.8
20211208081603 39 132 0.0 1.0 0.00 0.00 0.00 94 1018.7
20211208081103 39 131 0.0 0.0 0.00 0.00 0.00 94 1018.7
20211208080603 39 62 0.0 0.0 0.00 0.00 0.00 94 1018.8
20211208080103 39 0 0.0 1.0 0.00 0.00 0.00 94 1018.9
20211208075603 39 330 0.0 0.0 0.00 0.00 0.00 94 1019.0
20211208075103 39 329 0.0 0.0 0.00 0.00 0.00 94 1018.9
20211208074103 40 328 0.0 0.0 0.00 0.00 0.00 94 1018.8
20211208073603 40 328 0.0 0.0 0.00 0.00 0.00 94 1018.8
20211208073103 40 328 0.0 0.0 0.00 0.00 0.00 94 1018.9
20211208072603 40 328 0.0 0.0 0.00 0.00 0.00 94 1018.9
20211208072103 40 328 0.0 0.0 0.00 0.00 0.00 94 1018.8
20211208071103 40 328 0.0 0.0 0.00 0.00 0.00 94 1018.8
20211208070603 40 328 0.0 0.0 0.00 0.00 0.00 94 1018.9
20211208065603 40 328 0.0 0.0 0.00 0.00 0.00 93 1018.9
20211208064602 41 328 0.0 0.0 0.00 0.00 0.00 93 1018.7
20211208064103 41 328 0.0 0.0 0.00 0.00 0.00 94 1018.6
20211208063103 41 328 0.0 0.0 0.00 0.00 0.00 93 1018.5
20211208062603 42 328 0.0 0.0 0.00 0.00 0.00 93 1018.4
20211208062103 42 328 0.0 0.0 0.00 0.00 0.00 94 1018.5
20211208061603 43 328 0.0 0.0 0.00 0.00 0.00 94 1018.6
20211208061103 43 328 0.0 0.0 0.00 0.00 0.00 94 1018.5
20211208060603 43 328 0.0 0.0 0.00 0.00 0.00 94 1018.5
20211208055102 43 328 0.0 0.0 0.00 0.00 0.00 94 1018.6
20211208054603 43 328 0.0 0.0 0.00 0.00 0.00 94 1018.5
20211208054102 43 328 0.0 0.0 0.00 0.00 0.00 94 1018.6
20211208051103 42 332 0.0 0.0 0.00 0.00 0.00 93 1018.1
20211208050603 42 332 0.0 0.0 0.00 0.00 0.00 93 1017.9
20211208050102 42 332 0.0 0.0 0.00 0.00 0.00 93 1017.9
20211208045103 43 332 0.0 0.0 0.00 0.00 0.00 93 1017.8
20211208044103 43 332 0.0 0.0 0.00 0.00 0.00 93 1017.8
20211208043603 43 332 0.0 0.0 0.00 0.00 0.00 92 1017.6
20211208042103 44 332 0.0 0.0 0.00 0.00 0.00 93 1017.3
20211208041603 44 333 0.0 0.0 0.00 0.00 0.00 92 1017.2
20211208041103 44 332 0.0 0.0 0.00 0.00 0.00 92 1017.2
20211208040603 44 332 0.0 0.0 0.00 0.00 0.00 91 1017.2
20211208040102 44 332 0.0 0.0 0.00 0.00 0.00 91 1017.1
20211208035102 45 333 0.0 0.0 0.00 0.00 0.00 91 1017.0
20211208034602 45 332 0.0 0.0 0.00 0.00 0.00 91 1016.9
20211208034103 45 332 0.0 0.0 0.00 0.00 0.00 91 1017.0
20211208033103 46 333 0.0 0.0 0.00 0.00 0.00 90 1017.0
20211208031603 47 333 0.0 1.0 0.00 0.00 0.00 92 1017.1
20211208030603 46 350 0.0 1.0 0.00 0.00 0.00 92 1017.0
20211208030102 46 271 0.0 1.0 0.00 0.00 0.00 92 1017.0
20211208025602 46 271 0.0 0.0 0.00 0.00 0.00 91 1017.0
20211208025103 47 271 0.0 0.0 0.00 0.00 0.00 92 1016.9
20211208024602 47 271 0.0 0.0 0.00 0.00 0.00 92 1017.0
20211208024103 47 271 0.0 0.0 0.00 0.00 0.00 92 1017.1
20211208023603 46 271 0.0 1.0 0.00 0.00 0.00 92 1017.1
20211208023102 46 266 0.0 0.0 0.00 0.00 0.00 91 1017.0
20211208022602 46 266 0.0 0.0 0.00 0.00 0.00 91 1017.0
20211208022103 46 266 0.0 0.0 0.00 0.00 0.00 91 1017.0
20211208021602 46 266 0.0 0.0 0.00 0.00 0.00 91 1016.9
20211208021103 47 266 0.0 0.0 0.00 0.00 0.00 91 1016.8
20211208015603 47 266 0.0 0.0 0.00 0.00 0.00 90 1016.6
20211208014603 47 266 0.0 0.0 0.00 0.00 0.00 90 1016.7
20211208014103 47 266 0.0 0.0 0.00 0.00 0.00 89 1016.7
20211208013103 48 266 0.0 0.0 0.00 0.00 0.00 88 1016.5
20211208012103 48 266 0.0 0.0 0.00 0.00 0.00 88 1016.6
20211208011103 49 266 0.0 0.0 0.00 0.00 0.00 87 1016.4
20211208005603 50 266 0.0 0.0 0.00 0.00 0.00 85 1016.4
20211208005102 50 266 0.0 0.0 0.00 0.00 0.00 85 1016.3
20211208004602 51 266 0.0 0.0 0.00 0.00 0.00 84 1016.3
20211208004103 51 266 0.0 0.0 0.00 0.00 0.00 84 1016.3
20211208003103 51 266 0.0 0.0 0.00 0.00 0.00 83 1016.2
20211208002603 52 266 0.0 0.0 0.00 0.00 0.00 83 1016.2
20211208002103 52 266 0.0 0.0 0.00 0.00 0.00 82 1016.1
20211208000603 52 260 0.0 1.0 0.00 0.00 0.00 82 1016.2
20211208000103 52 297 0.0 1.0 0.00 0.00 0.00 81 1016.3
20211207235103 52 302 0.0 1.0 0.00 0.00 0.00 82 1016.4
20211207234103 52 300 0.0 1.0 0.00 0.00 0.00 82 1016.4
20211207233103 53 309 0.0 2.0 0.00 0.00 0.00 81 1016.4
20211207231603 53 301 0.0 1.0 0.00 0.00 0.00 81 1016.3
20211207231103 53 302 0.0 1.0 0.00 0.00 0.00 81 1016.3
20211207230103 53 302 0.0 0.0 0.00 0.00 0.00 80 1016.3
20211207225603 53 302 0.0 1.0 0.00 0.00 0.00 80 1016.4
20211207225103 53 327 0.0 1.0 0.00 0.00 0.00 80 1016.3
20211207224603 53 302 0.0 2.0 0.00 0.00 0.00 79 1016.3
20211207224102 53 321 0.0 2.0 0.00 0.00 0.00 80 1016.2
20211207223602 53 264 0.0 1.0 0.00 0.00 0.00 80 1016.0
20211207223103 53 306 0.0 3.0 0.00 0.00 0.00 80 1016.0
20211207222603 53 328 0.0 3.0 0.00 0.00 0.00 80 1015.9
20211207221602 54 327 0.0 3.0 0.00 0.00 0.00 79 1016.0
20211207221102 53 315 0.0 3.0 0.00 0.00 0.00 79 1016.0
20211207220603 54 304 0.0 2.0 0.00 0.00 0.00 80 1015.9
20211207220103 53 321 0.0 3.0 0.00 0.00 0.00 79 1015.8
20211207215603 54 313 1.0 3.0 0.00 0.00 0.00 79 1015.7
20211207215103 54 324 1.0 3.0 0.00 0.00 0.00 80 1015.7
20211207214603 54 309 1.0 3.0 0.00 0.00 0.00 80 1015.7
20211207214103 54 292 1.0 3.0 0.00 0.00 0.00 79 1015.8
20211207213603 54 309 1.0 3.0 0.00 0.00 0.00 79 1015.8
20211207213103 54 295 1.0 2.0 0.00 0.00 0.00 79 1015.8
20211207212103 54 353 0.0 3.0 0.00 0.00 0.00 80 1015.9
20211207211603 54 205 1.0 5.0 0.00 0.00 0.00 79 1016.0
20211207211103 54 205 0.0 2.0 0.00 0.00 0.00 80 1016.0
20211207210103 54 21 1.0 2.0 0.00 0.00 0.00 81 1016.1
20211207205603 53 203 1.0 3.0 0.00 0.00 0.00 82 1016.1
20211207205103 53 304 0.0 1.0 0.00 0.00 0.00 83 1016.1
20211207204603 53 115 0.0 3.0 0.00 0.00 0.00 83 1016.1
20211207204103 52 145 0.0 1.0 0.00 0.00 0.00 84 1016.2
20211207203603 52 283 0.0 1.0 0.00 0.00 0.00 84 1016.3
20211207203103 52 300 0.0 1.0 0.00 0.00 0.00 84 1016.5
20211207202602 51 171 0.0 1.0 0.00 0.00 0.00 85 1016.6
20211207202103 51 200 0.0 1.0 0.00 0.00 0.00 85 1016.6
20211207200602 51 125 0.0 0.0 0.00 0.00 0.00 85 1016.8
20211207195603 50 322 0.0 1.0 0.00 0.00 0.00 87 1017.0
20211207195103 50 331 0.0 1.0 0.00 0.00 0.00 86 1017.0
20211207193103 50 174 0.0 2.0 0.00 0.00 0.00 86 1017.2
20211207192603 50 223 0.0 1.0 0.00 0.00 0.00 86 1017.4
20211207192103 50 273 0.0 0.0 0.00 0.00 0.00 87 1017.4
20211207191602 50 169 0.0 1.0 0.00 0.00 0.00 86 1017.4
20211207191103 50 184 0.0 0.0 0.00 0.00 0.00 86 1017.5
20211207190603 50 105 0.0 2.0 0.00 0.00 0.00 86 1017.5
20211207190102 50 160 0.0 2.0 0.00 0.00 0.00 86 1017.5
20211207185603 50 168 0.0 2.0 0.00 0.00 0.00 86 1017.5
20211207185103 50 153 0.0 1.0 0.00 0.01 0.00 86 1017.6
20211207183602 50 140 1.0 3.0 0.00 0.01 0.00 87 1017.6
20211207182603 49 132 0.0 2.0 0.00 0.01 0.00 88 1017.5
20211207182103 49 165 0.0 1.0 0.00 0.01 0.00 88 1017.6
20211207181603 49 173 1.0 1.0 0.00 0.01 0.00 88 1017.6
20211207181102 49 177 0.0 0.0 0.00 0.01 0.00 89 1017.6
20211207180603 49 177 0.0 1.0 0.00 0.01 0.00 89 1017.6
20211207175103 49 307 0.0 0.0 0.00 0.01 0.00 89 1017.7
20211207173103 48 307 0.0 0.0 0.00 0.01 0.00 90 1017.5
20211207172603 48 313 0.0 1.0 0.00 0.01 0.00 90 1017.5
20211207172103 48 290 0.0 1.0 0.00 0.01 0.00 91 1017.5
20211207171603 48 141 0.0 1.0 0.00 0.01 0.00 91 1017.4
20211207171103 48 134 0.0 0.0 0.00 0.01 0.00 92 1017.3
20211207170603 48 134 0.0 0.0 0.00 0.01 0.00 92 1017.3
20211207170103 48 134 0.0 1.0 0.00 0.01 0.00 92 1017.2
20211207165603 48 136 0.0 0.0 0.00 0.01 0.00 93 1017.1
20211207165103 48 136 0.0 0.0 0.00 0.01 0.00 93 1017.0
20211207164603 48 136 0.0 0.0 0.00 0.01 0.00 93 1016.9
20211207164103 48 136 0.0 0.0 0.00 0.01 0.00 94 1016.9
20211207163603 48 136 0.0 0.0 0.00 0.01 0.00 94 1016.8
20211207163103 48 136 0.0 0.0 0.00 0.01 0.00 94 1016.8
20211207162603 47 136 0.0 0.0 0.00 0.01 0.00 94 1016.9
20211207162103 47 135 0.0 0.0 0.00 0.01 0.00 94 1016.9
20211207161604 47 136 0.0 0.0 0.00 0.01 0.00 94 1016.9
20211207161103 47 136 0.0 0.0 0.00 0.01 0.00 94 1016.9